Regional Weather Roundup
Issued by NWS

Home | Current Version | Previous Version | Text Only | Print | Product List | Glossary Off
Versions: 1 2 3 4 5 6 7 8 9 10 11 12 13 14 15 16 17 18 19 20 21 22 23 24 25 26 27 28 29 30 31 32 33 34 35 36 37 38 39 40 41 42 43 44 45 46 47 48 49 50

000
ASUS43 KDTX 222201
RWRMI
MICHIGAN HOURLY REGIONAL WEATHER ROUNDUP
NATIONAL WEATHER SERVICE DETROIT/PONTIAC MI
600 PM EDT SUN APR 22 2018

NOTE: "FAIR" INDICATES FEW OR NO CLOUDS BELOW 12,000 FEET WITH NO
SIGNIFICANT WEATHER AND/OR OBSTRUCTION TO VISIBILITY.

MIZ047>049-052>055-059>063-066>070-074>076-081>083-222300-
SOUTHEAST LOWER MICHIGAN

CITY           SKY/WX    TMP DP  RH WIND       PRES   REMARKS
ADRIAN         FAIR      59  25  27 SE15G23   30.31F
ANN ARBOR      FAIR      60  25  26 E10       30.32F
BAD AXE        FAIR      60   2  10 E8        30.37F
CARO           FAIR      60  18  19 E8        30.34S
DETROIT CITY   FAIR      59  24  26 SE10      30.33F
DETROIT        FAIR      62  22  21 E14       30.33F
FLINT          FAIR      61  25  25 E8        30.32F
GROSSE ILE     FAIR      60  20  21 E10G17    30.32S
HILLSDALE      FAIR      59  21  23 E14G20    30.29F
HOWELL         FAIR      61  19  19 E10G17    30.32S

CITY           SKY/WX    TMP DP  RH WIND       PRES   REMARKS
JACKSON        FAIR      62  21  20 E15G23    30.30F
LAMBERTVILLE   FAIR      57  18  21 E12G18    30.32F
LANSING        FAIR      63  25  23 E10       30.31F
LAPEER         FAIR      60  23  24 SE5       30.33F
MASON          FAIR      63  15  15 E9        30.31S
MONROE         FAIR      56  16  20 E9G17     30.32F
MT. CLEMENS    MOSUNNY   59  26  28 SE5       30.36S
PONTIAC        PTSUNNY   60  24  25 E9        30.31F
PORT HOPE        N/A     44  36  73 E6        30.37S
PORT HURON     FAIR      59  21  23 NE9       30.35F
TRI CITIES     FAIR      58  28  32 NE14      30.35F
MIDLAND        FAIR      59  29  33 NE8       30.34S
TROY           FAIR      61  20  20 NE9       30.35S
SAGINAW HB     FAIR      57  30  35 NE14      30.33F
$$
MIZ043>046-050>051-056>058-064>065-071>073-077>080-222300-
SOUTHWEST LOWER MICHIGAN

CITY           SKY/WX    TMP DP  RH WIND       PRES   REMARKS
BATTLE CREEK   FAIR      63  22  20 E10G22    30.28F
BENTON HARBOR  FAIR      65  23  20 NE14      30.25F
BIG RAPIDS     FAIR      62  14  15 E10G17    30.30F
COLDWATER      FAIR      61  24  24 E14       30.28F
FREMONT        FAIR      63  -2   7 SE7       30.29F
HOLLAND        FAIR      64  27  24 E12       30.29F
GRAND RAPIDS   FAIR      63  27  25 E9        30.29F
IONIA          FAIR      62  21  21 E8G18     30.30S
KALAMAZOO      FAIR      65  21  18 E8G20     30.28F
LUDINGTON      FAIR      57  24  27 N8        30.32S
MARSHALL       FAIR      62  19  18 E12       30.28F
MOUNT PLEASANT FAIR      62  20  19 E9        30.32F
MUSKEGON       FAIR      62  26  25 NW7       30.29F
SOUTH HAVEN    FAIR      65  15  14 E8        30.27S
$$
MIZ016>042-222300-
NORTHERN LOWER MICHIGAN

CITY           SKY/WX    TMP DP  RH WIND       PRES   REMARKS
ALPENA         FAIR      51  20  29 E10       30.38F
BEAVER ISLAND  FAIR      58  15  18 NW3       30.34F
BELLAIRE       FAIR      60  19  20 N6        30.32F
CADILLAC       FAIR      62  24  22 SE10      30.29F
CHARLEVOIX     FAIR      50  22  33 N8        30.37F
FRANKFORT      FAIR      57  23  27 N9        30.32F
GAYLORD        FAIR      58  14  17 VRB5      30.33F
GRAYLING       FAIR      60  18  19 SE6       30.31F
HARBOR SPRINGS FAIR      48  24  38 CALM      30.34S
HOUGHTON LAKE  FAIR      61  19  19 SE7       30.32F
MANISTEE       FAIR      54  24  31 NW12      30.32F
OSCODA         FAIR      48  24  38 E6        30.39S
PELLSTON       FAIR      58  22  24 N6        30.34F
ROGERS CITY    FAIR      52  24  33 E7        30.38S
TRAVERSE CITY  PTSUNNY   52  30  43 CALM      30.31F
$$
MIZ007>008-015-222300-
EASTERN UPPER MICHIGAN

CITY           SKY/WX    TMP DP  RH WIND       PRES   REMARKS
KINROSS        FAIR      58  14  17 S5        30.35F
MACKINAC ISLAN FAIR      51  17  26 E7        30.36S
NEWBERRY       FAIR      52  13  21 S10       30.33F
S. S. MARIE    FAIR      59  20  22 SE6       30.34F
MUNISING         N/A     60  22  23 S8        30.28F
$$
MIZ004>006-011>014-085-222300-
CENTRAL UPPER MICHIGAN

CITY           SKY/WX    TMP DP  RH WIND       PRES   REMARKS
MANISTIQUE     FAIR      53   5  14 SE6       30.33F
ESCANABA       FAIR      51  20  29 S9        30.33F
MENOMINEE      FAIR      57  20  23 S8        30.34F
SAWYER-GWINN   SUNNY     55  21  26 S15       30.28F
$$
MIZ001>003-009>011-084-222300-
WESTERN UPPER MICHIGAN

CITY           SKY/WX    TMP DP  RH WIND       PRES   REMARKS
IRON MOUNTAIN  FAIR      62  22  21 S8        30.27S
HOUGHTON       FAIR      51  17  26 E6        30.27F
COPPER HARBOR    N/A     53  13  20 SW9       30.27S
IRONWOOD       FAIR      56  24  29 CALM      30.26F
$$

ABBREVIATIONS USED IN REMARKS
   TC - TEMPERATURE IN CELSIUS
  WCI - WIND CHILL INDEX
   HX - HEAT INDEX
  VSB - VISIBILITY





USA.gov is the U.S. government's official web portal to all federal, state and local government web resources and services.